Hlavní strana
METAR-TAF:

METAR-TAF

Letiště :

Richmond, Virginie, Spojené státy americké

zeměpisná šířka: 37-24-24N, zeměpisná délka: 077-31-30W, výška: 72 m

Aktuální stav počasí

Zpráva byla vytvořena před 36 minutami, v 09:19 UTC
Východoseverovýchodní vítr 4 kt
Teplota 22°C
Vlhkost vzduchu 100%
Tlak 1018 hPa
Viditelnost: 16.1 km
Zataženo ve výšce 400 ft

METAR: KFCI 070919Z AUTO 06004KT 10SM OVC004 22/22 A3007 RMK AO2

Čas: 05:55 (09:55 UTC)


TAF: chybějící

Stav a předpovědi počasí z více než 4 000 letišť (zprávy METAR a TAF).

Červené a žluté tečky na mapě představují dostupné meteorologické stanice.

Když kurzor umístíte na tečku, zobrazí se název stanice.

Pak kliknutím zobrazíte stav a předpověď počasí.

Chcete-li změnit mapu, kliknutím na zelené tlačítko se znaménkem +mapu přiblížíte, kliknutím na zelené tlačítko se znaménkem – mapu oddálíte a kliknutím na zelené šipky přejdete na sousední mapy.


METAR-TAF: